Regional Weather Roundup
Issued by NWS

Home | Current Version | Previous Version | Graphics & Text | Print | Product List | Glossary Off
Versions: 1 2 3 4 5 6 7 8 9 10 11 12 13 14 15 16 17 18 19 20 21 22 23 24 25 26 27 28 29 30 31 32 33 34 35 36 37 38 39 40 41 42 43 44 45 46 47 48 49 50

984
ASUS43 KDTX 190910
RWRMI
MICHIGAN HOURLY REGIONAL WEATHER ROUNDUP
NATIONAL WEATHER SERVICE DETROIT/PONTIAC MI
400 AM EST SUN FEB 19 2017

NOTE: "FAIR" INDICATES FEW OR NO CLOUDS BELOW 12,000 FEET WITH NO
SIGNIFICANT WEATHER AND/OR OBSTRUCTION TO VISIBILITY.

MIZ047>049-052>055-059>063-066>070-074>076-081>083-191000-
SOUTHEAST LOWER MICHIGAN

CITY           SKY/WX    TMP DP  RH WIND       PRES   REMARKS
ADRIAN         PTCLDY    35  33  92 CALM      29.87R
ALMA           PTCLDY    37  33  85 W6        29.84R WCI  32
ANN ARBOR      PTCLDY    45  36  70 W8        29.84R
BAD AXE        MOCLDY    35  32  88 CALM      29.82R
CARO           MOCLDY    34  32  92 CALM      29.82R
DETROIT CITY   PTCLDY    43  36  76 W5        29.83R
DETROIT        PTCLDY    41  34  76 W5        29.85R
FLINT          CLOUDY    38  33  82 W7        29.84R WCI  33
GROSSE ILE     CLEAR     38  34  86 W3        29.84R
HILLSDALE      CLEAR     36  32  87 NW5       29.86R WCI  32
HOWELL         CLEAR     36  32  88 W7        29.84R WCI  30

CITY           SKY/WX    TMP DP  RH WIND       PRES   REMARKS
JACKSON        CLEAR     34  30  85 W3        29.85S
LAMBERTVILLE   CLEAR     45  38  79 CALM      29.86R
LANSING        PTCLDY    42  32  67 W6        29.85R
LAPEER         FAIR      38  34  87 CALM      29.83R
MASON          CLEAR     32  32  98 CALM      29.85R
MONROE         PTCLDY    38  35  90 CALM      29.84R
MT. CLEMENS    MOCLDY    43  37  78 W5        29.81R
PONTIAC        CLEAR     39  33  79 W6        29.82R WCI  35
PORT HOPE        N/A     41  34  76 W8        29.79R
PORT HURON     PTCLDY    41  36  81 W3        29.82R
TRI CITIES     CLOUDY    38  35  89 W8        29.83R WCI  32
MIDLAND        FAIR      40  32  73 CALM      29.83R
TROY           CLEAR     46  34  63 W8        29.84R
SAGINAW HB     CLOUDY    39  32  75 W7        29.82R WCI  34
$$
MIZ043>046-050>051-056>058-064>065-071>073-077>080-191000-
SOUTHWEST LOWER MICHIGAN

CITY           SKY/WX    TMP DP  RH WIND       PRES   REMARKS
BATTLE CREEK   CLOUDY    39  34  82 W8        29.87R WCI  33
BENTON HARBOR  CLEAR     31  28  89 CALM      29.89R
BIG RAPIDS     PTCLDY    32  31  96 CALM      29.83S
COLDWATER      CLEAR     34  32  94 SW3       29.88R
FREMONT          N/A     29  29 100 CALM      29.85R FOG
HOLLAND        CLEAR     37  31  78 W3        29.88R
GRAND RAPIDS   CLEAR     34  30  85 W7        29.86R WCI  28
IONIA          FAIR      38  33  81 W7        29.85R WCI  32
KALAMAZOO      CLEAR     32  28  85 CALM      29.88R
LUDINGTON      CLOUDY    30  29  97 CALM      29.84S
MARSHALL       CLOUDY    32  31  94 CALM      29.86S
MOUNT PLEASANT CLOUDY    39  33  78 CALM      29.83R
MUSKEGON       CLEAR     29  27  92 CALM      29.87R FOG
SOUTH HAVEN    CLOUDY    31  29  95 CALM      29.89R FOG
$$
MIZ016>042-191000-
NORTHERN LOWER MICHIGAN

CITY           SKY/WX    TMP DP  RH WIND       PRES   REMARKS
ALPENA         PTCLDY    38  32  79 W3        29.78R
BEAVER ISLAND  PTCLDY    35  31  85 W7        29.80R WCI  29
BELLAIRE         N/A     27  26  99 CALM      29.82S FOG
CADILLAC       CLOUDY    29  28  95 CALM      29.81S
CHARLEVOIX     CLEAR     39  31  72 W6        29.83R WCI  35
FRANKFORT      CLOUDY    32  30  93 CALM      29.84R
GAYLORD        PTCLDY    40  29  64 W7        29.79R
GRAYLING       PTCLDY    30  28  94 CALM      29.81S
HARBOR SPRINGS CLEAR     36  32  87 W5        29.79R WCI  32
HOUGHTON LAKE  PTCLDY    34  30  85 W3        29.81R
MANISTEE       PTCLDY    28  27  96 CALM      29.85R
OSCODA         PTCLDY    33  29  85 SW6       29.78S WCI  27
PELLSTON       CLEAR     37  29  72 W6        29.79R WCI  32
ROGERS CITY    CLEAR     42  32  67 W7        29.78R
TRAVERSE CITY  CLOUDY    35  30  82 CALM      29.81R
$$
MIZ007>008-015-191000-
EASTERN UPPER MICHIGAN

CITY           SKY/WX    TMP DP  RH WIND       PRES   REMARKS
KINROSS        PTCLDY    34  29  82 W7        29.75R WCI  28
MACKINAC ISLAN CLEAR     36  30  81 W8        29.77R WCI  29
NEWBERRY       CLEAR     36  29  76 W8        29.77R WCI  30
S. S. MARIE    CLEAR     41  32  70 NW13G23   29.74R
MUNISING         N/A     40  31  70 N13       29.80R WCI  32
$$
MIZ004>006-011>014-085-191000-
CENTRAL UPPER MICHIGAN

CITY           SKY/WX    TMP DP  RH WIND       PRES   REMARKS
MANISTIQUE     CLOUDY    41  31  66 NW8       29.79R
ESCANABA       CLOUDY    39  28  64 W3        29.82R
MENOMINEE      CLOUDY    40  29  64 CALM      29.85R
SAWYER-GWINN   PTCLDY    36  28  72 W6        29.82R WCI  31
$$
MIZ001>003-009>011-084-191000-
WESTERN UPPER MICHIGAN

CITY           SKY/WX    TMP DP  RH WIND       PRES   REMARKS
IRON MOUNTAIN  PTCLDY    40  27  59 NW6       29.82R
HOUGHTON       PTCLDY    35  29  78 W8        29.82R WCI  29
COPPER HARBOR    N/A     38  32  79 N13       29.81R WCI  30
IRONWOOD       CLEAR     33  27  78 W3        29.88R
$$

ABBREVIATIONS USED IN REMARKS
   TC - TEMPERATURE IN CELSIUS
  WCI - WIND CHILL INDEX
   HX - HEAT INDEX
  VSB - VISIBILITY





USA.gov is the U.S. government's official web portal to all federal, state and local government web resources and services.